Regional Weather Roundup
Issued by NWS Jackson, KY

Home | Current Version | Previous Version | Graphics & Text | Print | Product List | Glossary On
Versions: 1 2 3 4 5 6 7 8 9 10 11 12 13 14 15 16 17 18 19 20 21 22 23 24 25 26 27 28 29 30 31 32 33 34 35 36 37 38 39 40 41 42 43 44 45 46 47 48 49 50
000
ASUS43 KJKL 041810
RWRJKL

EAST KENTUCKY HOURLY WEATHER ROUNDUP
NATIONAL WEATHER SERVICE JACKSON KY
200 PM EDT MON MAY 04 2015

NOTE: "FAIR" INDICATES FEW OR NO CLOUDS BELOW 12,000 FEET WITH
NO SIGNIFICANT WEATHER AND/OR OBSTRUCTIONS TO VISIBILITY.

* THESE REPORTS ARE NOT UNDER NWS QUALITY CONTROL AND MAY NOT
  REPORT WEATHER SUCH AS PRECIPITATION AND FOG.

KYZ079-080-083-085-087-088-110-112-115-119-120-041900
...EASTERN KENTUCKY...

CITY           SKY/WX    TMP DP  RH WIND       PRES   REMARKS
JACKSON        MOSUNNY   79  49  34 SW8       30.27F
6HR MIN TEMP:  59; 6HR MAX TEMP:  79;

LONDON         MOSUNNY   79  44  28 S3        30.27F
6HR MIN TEMP:  55; 6HR MAX TEMP:  80;

SOMERSET*      MOSUNNY   77  50  38 W12       30.28F
MONTICELLO*    SUNNY     80  52  37 SW13      30.29F
6HR MIN TEMP:  57; 6HR MAX TEMP:  80;

MIDDLESBORO*   CLOUDY    76  51  41 SW5       30.28F
6HR MIN TEMP:  48; 6HR MAX TEMP:  78;

HARLAN APT*    CLEAR     79  43  27 SW6       30.29F
HAZARD APT*    MOCLDY    77  46  33 W6G16     30.27F
BLACK MTN*       N/A     70  50  49 CALM        N/A
PIKEVILLE APT* MOSUNNY   79  50  36 W9        30.27F
BIG SANDY*     CLEAR    N/A N/A N/A W12       30.25F
MOREHEAD APT*  PTCLDY    77  50  38 SW9G18    30.26F
$$

KYZ035-036-041-042-044-050-067-078-099-041900
...CENTRAL KENTUCKY...

CITY           SKY/WX    TMP DP  RH WIND       PRES   REMARKS
MT STERLING*   MOSUNNY   79  55  44 W8        30.25F
FLEMING/MASON* MOSUNNY   81  55  41 SW15G22   30.23F
DANVILLE*      PTSUNNY   79  52  38 SW7       30.25F
RICHMOND*      SUNNY     77  50  38 W12       30.25F
LEXINGTON      SUNNY     79  55  43 SW12      30.23F
6HR MIN TEMP:  59; 6HR MAX TEMP:  79;

FRANKFORT      MOSUNNY   80  54  40 W13G18    30.21F
6HR MIN TEMP:  57; 6HR MAX TEMP:  80;

$$

KYZ091>093-OHZ055-061-077-WVZ005-015-034-035-042-041900
...SOUTHERN OHIO/WEST VIRGINIA...

CITY           SKY/WX    TMP DP  RH WIND       PRES   REMARKS
COVINGTON      PTSUNNY   79  54  41 SW14G20   30.18F
COLUMBUS       PTSUNNY   80  51  36 SW14G21   30.16F
DAYTON         CLOUDY    75  54  47 W14       30.18F
WILMINGTON     MOSUNNY   76  51  41 SW14      30.18F
HUNTINGTON     SUNNY     80  49  33 SW13      30.22F
CHARLESTON     MOSUNNY   82  46  28 SW12G20   30.22F
PINEVILLE*     MOSUNNY   79  48  34 MISG      30.32F
BECKLEY        MOSUNNY   75  43  31 SW9       30.30F
BLUEFIELD      MOSUNNY   75  44  33 W8G17     30.33F
$$

VAZ002-007-008-TNZ017-027-036-066-071-041900
...SOUTHWEST VIRGINIA/EAST TENNESSEE...

CITY           SKY/WX    TMP DP  RH WIND       PRES   REMARKS
WISE*          SUNNY     73  41  31 SW12G17   30.34F
JONESVILLE*    CLEAR     77  45  31 SW7       30.32F
ABINGDON*      MOSUNNY   76  48  36 W6        30.32F
BRISTOL        MOSUNNY   76  48  37 W12       30.30F
KNOXVILLE      MOSUNNY   79  49  34 VRB7      30.28F
OAK RIDGE      SUNNY     81  48  31 VRB6      30.29F
CROSSVILLE     MOSUNNY   75  45  34 VRB3      30.31F
NASHVILLE      PTSUNNY   80  52  37 VRB6      30.24F
$$

...KEY TO REMARKS...
VSB - VISIBILITY IN MILES
WCI - WIND CHILL INDEX
HX  - HEAT INDEX

$$


USA.gov is the U.S. government's official web portal to all federal, state and local government web resources and services.